• Em Portugal
  • Lista de países
  • Para 7 dias
  • Temperatura da água
  • Mapas de satélite
  • Mapa do tempo
  • Widgets de tempo
  • user-avatar
    Iniciar Sessão

    Previsão horária em Laszkar Gah

    Hoje, 25 Novembro, Sábado

    Tempo Temperatura Precipitação Vento Pressão Humidade
    00:00 +16°C° 0 mm 3 m/s 693 mmHg 24%
    01:00 +16°C° 0 mm 3 m/s 693 mmHg 24%
    02:00 +16°C° 0 mm 3 m/s 693 mmHg 25%
    03:00 +16°C° 0 mm 3 m/s 693 mmHg 27%
    04:00 +16°C° 0 mm 3 m/s 693 mmHg 27%
    05:00 +16°C° 0 mm 3 m/s 693 mmHg 28%
    06:00 +16°C° 0 mm 3 m/s 694 mmHg 28%
    07:00 +16°C° 0 mm 3 m/s 694 mmHg 29%
    08:00 +17°C° 0 mm 3 m/s 694 mmHg 27%
    09:00 +19°C° 0 mm 2 m/s 695 mmHg 25%
    10:00 +21°C° 0 mm 2 m/s 695 mmHg 23%
    11:00 +23°C° 0 mm 2 m/s 695 mmHg 23%
    12:00 +24°C° 0 mm 3 m/s 695 mmHg 23%
    13:00 +24°C° 0 mm 3 m/s 695 mmHg 22%
    14:00 +24°C° 0 mm 3 m/s 695 mmHg 22%
    15:00 +24°C° 0 mm 3 m/s 696 mmHg 21%
    16:00 +23°C° 0 mm 4 m/s 696 mmHg 21%
    17:00 +21°C° 0 mm 3 m/s 696 mmHg 23%
    18:00 +20°C° 0 mm 3 m/s 696 mmHg 24%
    19:00 +19°C° 0 mm 3 m/s 696 mmHg 26%
    20:00 +18°C° 0 mm 3 m/s 697 mmHg 26%
    21:00 +17°C° 0 mm 3 m/s 697 mmHg 27%
    22:00 +16°C° 0 mm 3 m/s 697 mmHg 28%
    23:00 +16°C° 0 mm 2 m/s 697 mmHg 29%

    Amanhã, 26 Novembro, Domingo

    Tempo Temperatura Precipitação Vento Pressão Humidade
    00:00 +15°C° 0 mm 2 m/s 697 mmHg 31%
    01:00 +15°C° 0 mm 2 m/s 697 mmHg 32%
    02:00 +14°C° 0 mm 2 m/s 697 mmHg 33%
    03:00 +14°C° 0 mm 2 m/s 697 mmHg 35%
    04:00 +13°C° 0 mm 2 m/s 697 mmHg 36%
    05:00 +13°C° 0 mm 2 m/s 698 mmHg 36%
    06:00 +13°C° 0 mm 2 m/s 698 mmHg 37%
    07:00 +13°C° 0 mm 2 m/s 698 mmHg 38%
    08:00 +15°C° 0 mm 2 m/s 699 mmHg 33%
    09:00 +17°C° 0 mm 2 m/s 700 mmHg 28%
    10:00 +19°C° 0 mm 2 m/s 700 mmHg 23%
    11:00 +20°C° 0 mm 2 m/s 700 mmHg 20%
    12:00 +21°C° 0 mm 2 m/s 700 mmHg 16%
    13:00 +22°C° 0 mm 3 m/s 699 mmHg 12%
    14:00 +22°C° 0 mm 3 m/s 699 mmHg 11%
    15:00 +21°C° 0 mm 3 m/s 699 mmHg 10%
    16:00 +21°C° 0 mm 3 m/s 698 mmHg 9%
    17:00 +20°C° 0 mm 3 m/s 699 mmHg 10%
    18:00 +18°C° 0 mm 3 m/s 699 mmHg 11%
    19:00 +17°C° 0 mm 3 m/s 699 mmHg 11%
    20:00 +16°C° 0 mm 2 m/s 698 mmHg 12%
    21:00 +15°C° 0 mm 2 m/s 698 mmHg 13%
    22:00 +15°C° 0 mm 2 m/s 698 mmHg 14%
    23:00 +14°C° 0 mm 2 m/s 698 mmHg 14%

    Depois de amanhã, 27 Novembro, Segunda-feira

    Tempo Temperatura Precipitação Vento Pressão Humidade
    00:00 +13°C° 0 mm 1 m/s 697 mmHg 15%
    01:00 +13°C° 0 mm 1 m/s 697 mmHg 16%
    02:00 +12°C° 0 mm 1 m/s 697 mmHg 16%
    03:00 +12°C° 0 mm 1 m/s 696 mmHg 17%
    04:00 +11°C° 0 mm 1 m/s 696 mmHg 17%
    05:00 +12°C° 0 mm 1 m/s 696 mmHg 17%
    06:00 +12°C° 0 mm 1 m/s 697 mmHg 17%
    07:00 +12°C° 0 mm 1 m/s 697 mmHg 17%
    08:00 +14°C° 0 mm 1 m/s 698 mmHg 14%
    09:00 +16°C° 0 mm 1 m/s 698 mmHg 12%
    10:00 +20°C° 0 mm 1 m/s 699 mmHg 10%
    11:00 +20°C° 0 mm 2 m/s 699 mmHg 10%
    12:00 +20°C° 0 mm 2 m/s 698 mmHg 10%
    13:00 +21°C° 0 mm 2 m/s 697 mmHg 10%
    14:00 +21°C° 0 mm 2 m/s 697 mmHg 11%
    15:00 +20°C° 0 mm 2 m/s 697 mmHg 11%
    16:00 +20°C° 0 mm 2 m/s 696 mmHg 12%
    17:00 +20°C° 0 mm 1 m/s 696 mmHg 13%
    18:00 +18°C° 0 mm 1 m/s 696 mmHg 15%
    19:00 +16°C° 0 mm 1 m/s 696 mmHg 16%
    20:00 +15°C° 0 mm 1 m/s 696 mmHg 17%
    21:00 +15°C° 0 mm 1 m/s 696 mmHg 17%
    22:00 +14°C° 0 mm 1 m/s 695 mmHg 18%
    23:00 +14°C° 0 mm 1 m/s 695 mmHg 18%

    28 Novembro, Terça-feira

    Tempo Temperatura Precipitação Vento Pressão Humidade
    00:00 +14°C° 0 mm 1 m/s 695 mmHg 19%
    01:00 +13°C° 0 mm 1 m/s 694 mmHg 19%
    02:00 +13°C° 0 mm 1 m/s 694 mmHg 19%
    03:00 +13°C° 0 mm 1 m/s 694 mmHg 19%
    04:00 +13°C° 0 mm 1 m/s 693 mmHg 19%
    05:00 +13°C° 0 mm 1 m/s 694 mmHg 19%
    06:00 +13°C° 0 mm 1 m/s 694 mmHg 19%
    07:00 +13°C° 0 mm 1 m/s 694 mmHg 19%
    08:00 +15°C° 0 mm 1 m/s 695 mmHg 16%
    09:00 +18°C° 0 mm 1 m/s 696 mmHg 14%
    10:00 +18°C° 0 mm 0 m/s 696 mmHg 12%
    11:00 +21°C° 0 mm 1 m/s 696 mmHg 11%
    12:00 +22°C° 0 mm 1 m/s 695 mmHg 11%
    13:00 +23°C° 0 mm 2 m/s 695 mmHg 11%
    14:00 +23°C° 0 mm 2 m/s 695 mmHg 11%
    15:00 +21°C° 0 mm 2 m/s 694 mmHg 12%
    16:00 +21°C° 0 mm 2 m/s 694 mmHg 12%
    17:00 +20°C° 0 mm 2 m/s 694 mmHg 13%
    18:00 +18°C° 0 mm 2 m/s 695 mmHg 15%
    19:00 +17°C° 0 mm 2 m/s 695 mmHg 16%
    20:00 +16°C° 0 mm 2 m/s 695 mmHg 17%
    21:00 +16°C° 0 mm 2 m/s 695 mmHg 18%
    22:00 +15°C° 0 mm 2 m/s 695 mmHg 19%
    23:00 +15°C° 0 mm 2 m/s 695 mmHg 20%

    29 Novembro, Quarta-feira

    Tempo Temperatura Precipitação Vento Pressão Humidade
    00:00 +14°C° 0 mm 1 m/s 694 mmHg 21%
    01:00 +13°C° 0 mm 1 m/s 694 mmHg 22%
    02:00 +13°C° 0 mm 1 m/s 694 mmHg 23%
    03:00 +13°C° 0 mm 1 m/s 694 mmHg 25%
    04:00 +12°C° 0 mm 1 m/s 694 mmHg 26%
    05:00 +12°C° 0 mm 1 m/s 695 mmHg 26%
    06:00 +13°C° 0 mm 1 m/s 695 mmHg 27%
    07:00 +13°C° 0 mm 1 m/s 696 mmHg 27%
    08:00 +15°C° 0 mm 1 m/s 697 mmHg 25%
    09:00 +17°C° 0 mm 2 m/s 697 mmHg 23%
    10:00 +19°C° 0 mm 2 m/s 698 mmHg 20%
    11:00 +20°C° 0 mm 2 m/s 698 mmHg 21%
    12:00 +20°C° 0 mm 2 m/s 697 mmHg 21%
    13:00 +21°C° 0 mm 2 m/s 697 mmHg 22%
    14:00 +21°C° 0 mm 2 m/s 697 mmHg 22%
    15:00 +21°C° 0 mm 2 m/s 696 mmHg 23%
    16:00 +21°C° 0 mm 3 m/s 696 mmHg 24%
    17:00 +20°C° 0 mm 3 m/s 696 mmHg 25%
    18:00 +18°C° 0 mm 3 m/s 697 mmHg 27%
    19:00 +17°C° 0 mm 3 m/s 697 mmHg 28%
    20:00 +17°C° 0 mm 3 m/s 697 mmHg 28%
    21:00 +16°C° 0 mm 2 m/s 697 mmHg 29%
    22:00 +15°C° 0 mm 2 m/s 697 mmHg 29%
    23:00 +15°C° 0 mm 2 m/s 696 mmHg 29%

    30 Novembro, Quinta-feira

    Tempo Temperatura Precipitação Vento Pressão Humidade
    00:00 +14°C° 0 mm 2 m/s 696 mmHg 30%
    01:00 +14°C° 0 mm 2 m/s 696 mmHg 31%
    02:00 +13°C° 0 mm 2 m/s 696 mmHg 31%
    03:00 +13°C° 0 mm 2 m/s 695 mmHg 32%
    04:00 +12°C° 0 mm 2 m/s 695 mmHg 33%
    05:00 +12°C° 0 mm 2 m/s 696 mmHg 33%
    06:00 +12°C° 0 mm 2 m/s 696 mmHg 33%
    07:00 +12°C° 0 mm 2 m/s 696 mmHg 33%
    08:00 +14°C° 0 mm 2 m/s 697 mmHg 29%
    09:00 +16°C° 0 mm 2 m/s 697 mmHg 26%
    10:00 +17°C° 0 mm 2 m/s 698 mmHg 23%
    11:00 +18°C° 0 mm 2 m/s 698 mmHg 21%
    12:00 +19°C° 0 mm 2 m/s 697 mmHg 19%
    13:00 +20°C° 0 mm 2 m/s 697 mmHg 18%
    14:00 +20°C° 0 mm 2 m/s 696 mmHg 18%
    15:00 +20°C° 0 mm 2 m/s 696 mmHg 18%
    16:00 +20°C° 0 mm 2 m/s 696 mmHg 18%
    17:00 +19°C° 0 mm 2 m/s 696 mmHg 20%
    18:00 +17°C° 0 mm 2 m/s 696 mmHg 22%
    19:00 +16°C° 0 mm 2 m/s 696 mmHg 23%
    20:00 +15°C° 0 mm 2 m/s 696 mmHg 25%
    21:00 +15°C° 0 mm 1 m/s 696 mmHg 26%
    22:00 +14°C° 0 mm 1 m/s 696 mmHg 27%
    23:00 +13°C° 0 mm 1 m/s 696 mmHg 28%
    Mostrar mais